Location: Étang Rond
(42.7927°N, 1.0661°E)
Time: 13:23:52
(UTC+00:00)

Meteor 2-16 Rocket - Visible Passes

Search period start: 14 February 2026 00:00
Search period end: 24 February 2026 00:00
Orbit: 940 x 957 km, 82.6° (Epoch: 13 February)

Date Brightness Start Highest point End Pass type
(mag) Time Alt. Az. Time Alt. Az. Time Alt. Az.
14 Feb 7.2 02:30:47 10° NE 02:32:46 11° ENE 02:34:43 10° E visible
14 Feb 4.5 04:12:35 10° N 04:18:42 76° E 04:24:48 10° SSE visible
14 Feb 5.8 05:59:15 10° NW 06:02:47 16° W 06:06:18 10° WSW visible
15 Feb 6.7 02:46:26 10° NNE 02:50:32 18° ENE 02:54:37 10° ESE visible
15 Feb 4.3 04:29:56 10° NNW 04:36:01 71° W 04:42:05 10° S visible
15 Feb 6.0 17:56:28 10° SW 18:02:04 38° WNW 18:07:42 10° N visible
16 Feb 6.1 03:03:01 10° NNE 03:08:11 28° ENE 03:13:21 10° SE visible
16 Feb 4.6 04:47:27 10° NNW 04:53:13 45° W 04:58:59 10° SSW visible
16 Feb 6.8 18:14:45 10° SW 18:19:37 25° WNW 18:24:33 10° NNW visible
17 Feb 6.0 03:19:56 10° N 03:31:01 12° SE 03:31:30 10° SE visible
17 Feb 5.9 05:05:13 10° NNW 05:15:18 11° SW 05:15:28 10° SW visible
17 Feb 7.1 18:33:39 10° WSW 18:37:19 16° WNW 18:41:00 10° NNW visible
18 Feb 6.2 03:37:04 10° N 03:50:45 - SSE 03:39:09 22° N visible
19 Feb 7.2 02:11:14 10° NNE 02:11:37 11° NNE 02:11:37 11° NNE visible
19 Feb 6.3 03:54:21 10° N 03:55:40 17° N 03:55:40 17° N visible
20 Feb 7.0 02:27:39 10° NNE 02:28:19 13° NNE 02:28:19 13° NNE visible
20 Feb 6.5 04:11:50 10° NNW 04:12:22 13° NNW 04:12:22 13° NNW visible
21 Feb 6.9 02:44:29 10° N 02:45:08 13° N 02:45:08 13° N visible
21 Feb 7.0 17:57:34 10° WSW 18:01:40 18° WNW 18:05:47 10° NNW visible
22 Feb 6.9 03:01:34 10° N 03:02:02 12° N 03:02:02 12° N visible
22 Feb 7.3 18:17:24 10° W 18:19:27 12° WNW 18:21:30 10° NW visible
23 Feb 6.9 03:18:49 10° N 03:19:00 11° N 03:19:00 11° N visible
